Home > Weather > Salta > Past weeks

Flag for Argentina Weather for the Past 2 Weeks in Salta, Salta, Argentina

Now
77 °F

Broken clouds.


Feels Like: 79 °F
Forecast: 66 / 80 °F
Wind: 6 mph from East

Location: Jujuy Aerodrome

Current Time: Feb 14, 2016 at 12:32:03 PM

Latest Report: Feb 14, 2016 at 11:00 AM


Visibility: N/A

Pressure: 29.98 "Hg (26.18 "Hg at 1184m altitude)

Humidity: 79%

Dew point: 70 °F

Location of SaltaLocation

Historic Weather in Salta — Graph

°F

Salta Temperature Yesterday

Maximum temperature yesterday: 93 °F (at 2:00 PM)
Minimum temperature yesterday: 68 °F (at 9:00 PM)
Average temperature yesterday: 80 °F

High & Low Weather Summary for the Past Weeks

 TemperatureHumidityPressure
High93 °F (Feb 13, 2:00 PM)100% (Jan 30, 10:00 PM)30.24 "Hg (Jan 30, 10:00 PM)
Low34 °F (Feb 12, 12:00 PM)45% (Jan 30, 3:00 PM)29.68 "Hg (Feb 12, 5:00 PM)
Average75 °F79%29.96 "Hg
* Reported Jan 30 11:00 AM — Feb 14 11:00 AM, Salta, Weather by CustomWeather, © 2016

Note: Actual official high and low records may vary slightly from our data, if they occured in-between our weather recording intervals... More about our weather records

Advertising

Salta Weather History for the Previous 24 Hours

 ConditionsComfort  
Time TempWeatherWind HumidityBarometerVisibility
11:00 AM
Sun, Feb 14
77 °FBroken clouds.6 mph79%29.98 "HgN/A
10:00 AM72 °FBroken clouds.3 mph94%30.01 "HgN/A
9:00 AM70 °FMore clouds than sun.No wind88%30.04 "HgN/A
8:00 AM68 °FMore clouds than sun.12 mph94%30.04 "Hg5 mi
7:00 AM68 °FMore clouds than sun.9 mph94%30.01 "HgN/A
6:00 AM70 °FLight rain. Mostly cloudy.9 mph94%30.01 "Hg5 mi
5:00 AM70 °FRain. Mostly cloudy.9 mph94%30.01 "Hg2 mi
4:00 AM70 °FRain. Mostly cloudy.10 mph94%29.98 "Hg2 mi
3:00 AM70 °FLight rain. Mostly cloudy.8 mph94%29.98 "Hg3 mi
2:00 AM72 °FThunderstorms. Mostly cloudy.8 mph94%29.98 "Hg5 mi
1:00 AM72 °FThunderstorms. Mostly cloudy.8 mph94%29.98 "Hg3 mi
12:00 AM73 °FLight rain. Mostly cloudy.7 mph83%30.01 "Hg5 mi
11:00 PM
Sat, Feb 13
72 °FThunderstorms. Mostly cloudy.6 mph94%29.98 "Hg5 mi
10:00 PM72 °FLight rain. Partly cloudy.9 mph94%29.95 "Hg5 mi
9:00 PM68 °FThunderstorms. Passing clouds.23 mph100%29.92 "Hg2 mi
8:00 PM75 °FThunderstorms. Partly cloudy.23 mph74%29.83 "Hg4 mi
7:00 PM88 °FBroken clouds.3 mph66%29.71 "HgN/A
6:00 PM91 °FBroken clouds.No wind52%29.71 "HgN/A
5:00 PM88 °FBroken clouds.No wind62%29.71 "HgN/A
4:00 PM88 °FScattered clouds.6 mph62%29.71 "HgN/A
3:00 PM91 °FScattered clouds.3 mph49%29.74 "HgN/A
2:00 PM93 °FPassing clouds.No wind47%29.74 "HgN/A
1:00 PM90 °FPassing clouds.No wind55%29.77 "HgN/A
12:00 PM88 °FPassing clouds.5 mph59%29.77 "HgN/A
Weather by CustomWeather, © 2016

See weather overviewHow to use our weather pages